Location: Cleveland
(41.4990°N, 81.6960°W)
Time: 22:53:30
(UTC-05:00)

Hubble Space Telescope - Visible Passes

Search period start: 30 November 2023 00:00
Search period end: 10 December 2023 00:00
Orbit: 519 x 523 km, 28.5° (Epoch: 30 November)

Date Brightness Start Highest point End Pass type
(mag) Time Alt. Az. Time Alt. Az. Time Alt. Az.
30 Nov 3.3 18:17:07 10° SSW 18:18:42 12° S 18:20:18 10° SSE visible
01 Dec 3.4 18:00:51 10° SSW 18:02:15 12° S 18:03:38 10° SSE visible
02 Dec 3.6 17:44:41 10° SSW 17:45:46 11° S 17:46:51 10° S visible
03 Dec 3.8 17:28:46 10° SSW 17:29:16 10° S 17:29:46 10° S visible
